STARLINK-11292, 61203

Orbit data source: Space-Track

STARLINK-11292, 61203 is a payload satellite owned by SpaceX/Seattle (US) in LEO that was launched on Fri, 20 Sep 2024 UTC via an FALCON 9 launch vehicle from the Air Force Western Test Range (AFWTR). Payload-class satellites include a variety of spacecraft equipped with specific instruments for various scientific and technological missions. These include communications satellites like Starlink; space stations such as the ISS; scientific satellites like the Hubble; Earth observation satellites from companies like Planet Labs, Umbra, and HawkEye 360; GPS; miniature CubeSats for education and research; and military/defense satellites.

Loading next visibility...
Identifier
61203, 2024-171D
Orbit
LEO
Country
Flag of USUS
Related business
Manufacturer
SpaceX/Seattle
Mission
Operational Commercial Communications
Bus & Motor
STARLINK V2MD, Unknown motor
Mass
960 kg wet, ~910 kg dry
Launch date (UTC)
2024-09-20 (2 years ago)
Launch vehicle
FALCON 9
Launch site
Air Force Western Test Range (AFWTR)
Object type
Payload
Rocket body
Debris
Shape & HBR
Box + 2 Pan, 18.1 m
Radar Cross Section
36.964 m², Large (>1 m²)

Expand to show TLE details & history
Last TLE update: 19 hours ago

TLE from 19 hours ago
0 STARLINK-11292
1 61203U 24171D   26171.03930934  .00000021  00000-0  50286-5 0  9994
2 61203  53.1589  31.7342 0000796  91.4589 268.6520 15.69711709100470
Epoch: 2026-06-20T00:56Z
TLE epoch observation values (Epoch: 2026-06-20T00:56:36.326Z)
Latitude
-0.00005°
Longitude
109.32314°
Altitude
360.649 km
Speed
7.694 km/s
True Right ascension
02h 06m 56s
True Declination
0° 00' 00"
Sunlit
Object was in daylight at epoch
Visualization orbit readout
Latitude
Unknown
Longitude
Unknown
Altitude
Unknown
Speed
Unknown
Apparent Right ascension
Unknown
Apparent Declination
Unknown
Sunlit
N/A
Visualization observer readout
Local Sidereal Time
07:17:01
Azimuth
Unknown
Elevation
Unknown
Doppler factor
Unknown
Orbital elements
Apogee altitude
360.519 km
Perigee altitude
359.446 km
Semi-major axis
6,738.12 km
Eccentricity
0.00008
Inclination
53.1589°
RAAN
31.7342°
Arg. of periapsis
91.4589°
True anomaly
268.64288°
Mean anomaly
268.652°
Eccentric anomaly
268.64744°
Mean motion
3.92405 °/min
Orbital period
91.74 mins
BSTAR
0.0000050286
Loading maneuver chart data...
Computing Atmospheric mass density...
Loading historical data...
Loading historical data...
Loading historical data...
Loading historical data...
Loading historical data...
Loading historical data...
Loading historical data...

Documentation

Showing up to 5 results
|